Haines, AK

7:59 AM AKST on December 12, 2017 (GMT -0900)
Haines

Weather History for PAHN - February, 2012

Change the Weather History Date:

Monday, February 20, 2012

  Actual Average Record
Temperature  
Mean Temperature 32 °F -  
Max Temperature 36 °F 33 °F 45 °F (1977)
Min Temperature 28 °F 24 °F 6 °F (1986)
Degree Days  
Heating Degree Days 33    
Moisture  
Dew Point 30 °F    
Average Humidity 91    
Maximum Humidity 100    
Minimum Humidity 85    
Precipitation  
Precipitation 0.47 in - - ()
Sea Level Pressure  
Sea Level Pressure 29.25 in    
Wind  
Wind Speed 8 mph (East)    
Max Wind Speed 21 mph    
Max Gust Speed 38 mph    
Visibility 4 miles    
Events Fog , Rain , Snow    
Averages and records for this station are not official NWS values.
T = Trace of Precipitation, MM = Missing Value Source: NWS Daily Summary

Daily Weather History Graph

Daily Weather History Graph

Search for Another Location

Airport or City:

Trip Planner

Search our weather history database for the weather conditions in past years. The results will help you decide how hot, cold, wet, or windy it might be!

Date:

Astronomy

Feb. 20, 2012 Rise Set
Actual Time 7:24 AM AKST 5:07 PM AKST
Civil Twilight 6:42 AM AKST 5:49 PM AKST
Nautical Twilight 5:55 AM AKST 6:37 PM AKST
Astronomical Twilight 5:08 AM AKST 7:24 PM AKST
Moon 6:32 AM AKST (2/20) 4:19 PM AKST (2/20)
Length of Visible Light 11h 07m
Length of Day
9h 43m
Waning Crescent, 1% of the Moon is Illuminated
Feb 20
Waning Crescent
Feb 21
New
Feb 29
First Quarter
Mar 8
Full
Mar 14
Last Quarter

Hourly Weather History & Observations

Time (AKST) Temp. Windchill Dew Point Humidity Pressure Visibility Wind Dir Wind Speed Gust Speed Precip Events Conditions
12:54 AM 28.0 °F 18.1 °F 26.1 °F 92% 29.63 in 10.0 mi WNW 11.5 mph - N/A   Overcast
1:54 AM 28.9 °F 19.2 °F 26.1 °F 89% 29.62 in 10.0 mi WNW 11.5 mph - N/A   Overcast
2:54 AM 28.0 °F 18.6 °F 26.1 °F 92% 29.59 in 10.0 mi WNW 10.4 mph - N/A   Overcast
3:54 AM 28.0 °F 19.3 °F 26.1 °F 92% 29.57 in 10.0 mi WNW 9.2 mph - N/A   Overcast
4:54 AM 28.0 °F - 27.0 °F 96% 29.54 in 10.0 mi Calm Calm - N/A   Overcast
5:54 AM 28.0 °F - 26.1 °F 92% 29.52 in 10.0 mi Calm Calm - N/A   Overcast
6:06 AM 28.4 °F - 26.6 °F 93% 29.50 in 7.0 mi Calm Calm - 0.00 in Snow Light Snow
6:24 AM 28.4 °F - 26.6 °F 93% 29.49 in 2.5 mi Calm Calm - 0.00 in Snow Light Snow
6:31 AM 28.4 °F - 26.6 °F 93% 29.49 in 4.0 mi Calm Calm - 0.00 in Snow Light Snow
6:54 AM 28.0 °F - 27.0 °F 96% 29.49 in 5.0 mi Calm Calm - 0.00 in Snow Light Snow
7:54 AM 30.0 °F - 28.0 °F 92% 29.45 in 7.0 mi Calm Calm - 0.00 in Snow Light Snow
8:20 AM 30.2 °F 25.4 °F 26.6 °F 86% 29.43 in 2.0 mi Variable 4.6 mph - 0.00 in Snow Light Snow
8:27 AM 30.2 °F 21.3 °F 26.6 °F 86% 29.42 in 1.8 mi SE 10.4 mph 17.3 mph 0.00 in Snow Light Snow
8:54 AM 30.9 °F 22.2 °F 27.0 °F 85% 29.41 in 1.2 mi SSE 10.4 mph - 0.00 in Snow Light Snow
9:30 AM 32.0 °F - 28.4 °F 87% 29.37 in 2.0 mi Calm Calm - 0.00 in Snow Light Snow
9:37 AM 32.0 °F - 28.4 °F 87% 29.37 in 1.5 mi Calm Calm - 0.00 in Snow Light Snow
9:52 AM 30.2 °F 21.9 °F 28.4 °F 93% 29.36 in 1.0 mi SSE 9.2 mph 18.4 mph 0.01 in Snow Light Snow
9:54 AM 30.9 °F 25.2 °F 28.0 °F 89% 29.36 in 0.8 mi Variable 5.8 mph 18.4 mph 0.01 in Snow Light Snow
10:05 AM 30.2 °F 26.7 °F 30.2 °F 100% 29.35 in 0.8 mi Variable 3.5 mph - 0.00 in Snow Light Snow
10:16 AM 30.2 °F 25.4 °F 30.2 °F 100% 29.35 in 1.0 mi Variable 4.6 mph - 0.00 in Snow Light Snow
10:38 AM 30.2 °F 25.4 °F 28.4 °F 93% 29.32 in 1.5 mi SSE 4.6 mph - 0.01 in Snow Light Snow
10:54 AM 32.0 °F - 28.9 °F 88% 29.31 in 1.2 mi Calm Calm - 0.01 in Snow Light Snow
11:33 AM 32.0 °F 22.5 °F 28.4 °F 87% 29.25 in 1.5 mi SE 12.7 mph 18.4 mph 0.01 in Snow Light Snow
11:54 AM 33.1 °F 26.1 °F 28.9 °F 85% 29.25 in 1.8 mi SE 8.1 mph 18.4 mph 0.02 in Snow Light Snow
12:28 PM 32.0 °F 28.7 °F 30.2 °F 93% 29.23 in 1.0 mi Variable 3.5 mph - 0.00 in Snow Light Snow
12:35 PM 33.8 °F 30.8 °F 30.2 °F 87% 29.22 in 0.8 mi NW 3.5 mph - 0.01 in Snow Light Snow
12:44 PM 33.8 °F 28.6 °F 30.2 °F 87% 29.21 in 0.8 mi Variable 5.8 mph - 0.01 in Snow Light Snow
12:54 PM 34.0 °F 28.0 °F 30.9 °F 89% 29.21 in 0.8 mi Variable 6.9 mph - 0.02 in Snow Light Snow
1:02 PM 33.8 °F 29.6 °F 30.2 °F 87% 29.19 in 1.5 mi East 4.6 mph - 0.00 in Snow Light Snow
1:18 PM 33.8 °F 28.6 °F 30.2 °F 87% 29.18 in 0.5 mi Variable 5.8 mph 18.4 mph 0.01 in Fog , Snow Snow
1:45 PM 33.8 °F 23.9 °F 30.2 °F 87% 29.16 in 1.0 mi SE 15.0 mph 18.4 mph 0.05 in Snow Light Snow
1:54 PM 33.1 °F 24.9 °F 30.9 °F 92% 29.16 in 0.5 mi ESE 10.4 mph - 0.06 in Fog , Snow Snow
2:54 PM 33.1 °F 23.9 °F 30.9 °F 92% 29.13 in 0.5 mi ESE 12.7 mph 23.0 mph 0.11 in Fog , Snow Snow
3:42 PM 33.8 °F 25.3 °F 32.0 °F 93% 29.09 in 0.2 mi East 11.5 mph 18.4 mph 0.05 in Fog , Snow Heavy Snow
3:51 PM 33.8 °F 26.4 °F 30.2 °F 87% 29.09 in 0.5 mi East 9.2 mph 26.5 mph 0.06 in Fog , Snow Snow
3:54 PM 34.0 °F 23.8 °F 30.9 °F 89% 29.09 in 0.5 mi East 16.1 mph 26.5 mph 0.06 in Fog , Snow Snow
4:16 PM 33.8 °F 23.9 °F 30.2 °F 87% 29.08 in 0.8 mi East 15.0 mph 31.1 mph 0.03 in Snow Light Snow
4:21 PM 33.8 °F 23.5 °F 30.2 °F 87% 29.09 in 1.0 mi East 16.1 mph 31.1 mph 0.03 in Snow Light Snow
4:40 PM 33.8 °F 24.8 °F 32.0 °F 93% 29.09 in 1.2 mi ENE 12.7 mph 23.0 mph 0.05 in Snow Light Snow
4:54 PM 34.0 °F 24.2 °F 32.0 °F 92% 29.10 in 0.8 mi East 15.0 mph 24.2 mph 0.06 in Snow Light Snow
5:08 PM 33.8 °F 23.5 °F 32.0 °F 93% 29.09 in 2.0 mi East 16.1 mph 26.5 mph 0.01 in Snow Light Snow
5:16 PM 33.8 °F 23.9 °F 32.0 °F 93% 29.08 in 6.0 mi East 15.0 mph 28.8 mph 0.01 in Snow Light Snow
5:54 PM 35.1 °F 24.5 °F 33.1 °F 92% 29.07 in 10.0 mi East 18.4 mph 29.9 mph 0.01 in   Overcast
6:19 PM 35.6 °F 26.2 °F 33.8 °F 93% 29.06 in 7.0 mi East 15.0 mph 38.0 mph 0.01 in Snow Light Snow
6:51 PM 35.6 °F 26.6 °F 33.8 °F 93% 29.06 in 10.0 mi East 13.8 mph 25.3 mph 0.02 in Rain Light Rain
6:54 PM 35.1 °F 26.9 °F 33.1 °F 92% 29.08 in 10.0 mi East 11.5 mph 23.0 mph 0.02 in Rain Light Rain
7:07 PM 35.6 °F 27.1 °F 33.8 °F 93% 29.06 in 10.0 mi East 12.7 mph 24.2 mph 0.00 in Rain Light Rain
7:27 PM 35.6 °F 25.9 °F 33.8 °F 93% 29.06 in 10.0 mi East 16.1 mph 27.6 mph 0.00 in Rain Light Rain
7:54 PM 35.1 °F 25.2 °F 33.1 °F 92% 29.07 in 10.0 mi East 16.1 mph 35.7 mph 0.01 in Rain Light Rain
8:54 PM 35.1 °F 25.2 °F 33.1 °F 92% 29.08 in 10.0 mi East 16.1 mph 29.9 mph 0.01 in Rain Light Rain
9:51 PM 35.6 °F 25.9 °F 33.8 °F 93% 29.08 in 10.0 mi East 16.1 mph 32.2 mph 0.01 in Rain Light Rain
9:54 PM 35.1 °F 23.8 °F 34.0 °F 96% 29.09 in 10.0 mi East 20.7 mph 28.8 mph 0.01 in Rain Light Rain
10:54 PM 36.0 °F 25.6 °F 34.0 °F 93% 29.12 in 8.0 mi East 18.4 mph 31.1 mph 0.03 in Rain Light Rain
11:43 PM 35.6 °F 25.2 °F 33.8 °F 93% 29.12 in 10.0 mi East 18.4 mph 26.5 mph 0.03 in Rain Light Rain
11:54 PM 35.1 °F 25.5 °F 33.1 °F 92% 29.13 in 10.0 mi East 15.0 mph 31.1 mph 0.03 in Rain Light Rain